Location: downtown San Diego
(32.7310°N, 117.1990°W)
Time: 12:28:08
(UTC-08:00)

Cosmos 1408 Rocket - Pass Details

Date: 12 July 2018
Orbit: 600 x 632 km, 82.6° (Epoch: 18 November)

Event Time Altitude Azimuth Distance (km) Brightness Sun altitude
Rises 21:16:47 0° 197° (SSW) 2,908 6.8 -14.7°
Reaches altitude 10° 21:19:04 10° 202° (SSW) 2,004 6.0 -15.0°
Maximum altitude 21:23:23 50° 278° (W) 803 4.5 -15.7°
Drops below altitude 10° 21:27:43 10° 355° (N) 2,009 6.8 -16.4°
Sets 21:30:01 0° 0° (N) 2,916 7.6 -16.8°
